Tofino, British Columbia

4:28 PM PDT on June 18, 2018 (GMT -0700)
Tofino

Weather History for CYAZ - October, 2017

Change the Weather History Date:

Friday, October 6, 2017

  Actual Average Record
Temperature  
Mean Temperature 52 °F -  
Max Temperature 57 °F 55 °F 68 °F (2010)
Min Temperature 48 °F 42 °F 41 °F (2000)
Degree Days  
Heating Degree Days 12    
Growing Degree Days 2 (Base 50)    
Moisture  
Dew Point 52 °F    
Average Humidity 96    
Maximum Humidity 100    
Minimum Humidity 88    
Precipitation  
Precipitation 0.00 in 0.53 in - ()
Sea Level Pressure  
Sea Level Pressure 29.97 in    
Wind  
Wind Speed 6 mph ()    
Max Wind Speed 25 mph    
Max Gust Speed 33 mph    
Visibility 3.9 miles    
Events Rain    
Averages and records for this station are not official NWS values.
T = Trace of Precipitation, MM = Missing Value Source: Averaged Metar Reports

Daily Weather History Graph

Daily Weather History Graph

Search for Another Location

Airport or City:

Astronomy

Oct. 06, 2017 Rise Set
Actual Time 7:30 AM PDT 6:50 PM PDT
Civil Twilight 6:59 AM PDT 7:22 PM PDT
Nautical Twilight 6:22 AM PDT 7:58 PM PDT
Astronomical Twilight 5:45 AM PDT 8:35 PM PDT
Moon 7:49 PM PDT (10/6) 8:24 AM PDT (10/6)
Length of Visible Light 12h 23m
Length of Day
11h 19m
Full, 99% of the Moon is Illuminated
Oct 6
Full
Oct 12
Last Quarter
Oct 19
New
Oct 27
First Quarter
Nov 3
Full

Hourly Weather History & Observations

Time (PDT) Temp. Dew Point Humidity Pressure Visibility Wind Dir Wind Speed Gust Speed Precip Events Conditions
6:00 AM 48.2 °F 48.2 °F 100% 30.07 in 1.0 mi East 3.5 mph - N/A Rain Rain
6:12 AM 48.2 °F 48.2 °F 100% 30.07 in 1.0 mi East 3.5 mph - N/A Rain Rain
6:34 AM 50.0 °F 48.2 °F 94% 30.06 in 1.0 mi NE 4.6 mph - N/A Rain Light Rain
7:00 AM 50.0 °F 48.2 °F 94% 30.06 in 1.5 mi ENE 5.8 mph - N/A Rain Light Rain
7:43 AM 50.0 °F 50.0 °F 100% 30.05 in 4.0 mi ENE 3.5 mph - N/A   Overcast
8:00 AM 50.0 °F 50.0 °F 100% 30.04 in 6.0 mi East 4.6 mph - N/A   Overcast
8:49 AM 50.0 °F 50.0 °F 100% 30.02 in 2.0 mi ESE 4.6 mph - N/A Rain Light Rain
9:00 AM 51.8 °F 50.0 °F 94% 30.02 in 2.0 mi ESE 3.5 mph - N/A Rain Light Rain
9:31 AM 53.6 °F 51.8 °F 94% 30.01 in 1.0 mi Calm Calm - N/A Rain Light Rain
9:51 AM 55.4 °F 55.4 °F 100% 30.00 in 3.0 mi WSW 8.1 mph 19.6 mph N/A   Overcast
10:00 AM 55.4 °F 55.4 °F 100% 30.00 in 3.0 mi West 5.8 mph - N/A Rain Light Rain
10:22 AM 55.4 °F 53.6 °F 94% 30.00 in 2.0 mi West 5.8 mph - N/A Rain Light Rain
11:00 AM 55.4 °F 53.6 °F 94% 29.98 in 3.0 mi West 2.3 mph - N/A Rain Light Rain
11:30 AM 55.4 °F 55.4 °F 100% 29.97 in 1.0 mi WSW 6.9 mph - N/A Rain Light Rain
11:42 AM 55.4 °F 55.4 °F 100% 29.97 in 3.0 mi WSW 12.7 mph 20.7 mph N/A Rain Light Rain
12:00 PM 55.4 °F 55.4 °F 100% 29.98 in 5.0 mi West 11.5 mph - N/A   Overcast
12:41 PM 57.2 °F 55.4 °F 94% 29.97 in 8.0 mi West 9.2 mph - N/A   Overcast
1:00 PM 57.2 °F 55.4 °F 94% 29.96 in 8.0 mi NNW 3.5 mph - N/A   Overcast
2:13 PM 57.2 °F 53.6 °F 88% 29.93 in 6.0 mi WSW 6.9 mph - N/A Rain Light Rain Showers
3:00 PM 55.4 °F 53.6 °F 94% 29.92 in 8.0 mi West 11.5 mph 18.4 mph N/A   Overcast
3:29 PM 55.4 °F 55.4 °F 100% 29.90 in 5.0 mi WSW 13.8 mph - N/A   Overcast
4:00 PM 57.2 °F 55.4 °F 94% 29.89 in 3.0 mi West 13.8 mph 23.0 mph N/A Rain Light Rain Showers
4:03 PM 55.4 °F 51.8 °F 88% 29.89 in 1.5 mi West 25.3 mph 33.4 mph N/A Rain Rain Showers
4:08 PM 53.6 °F 51.8 °F 94% 29.89 in 3.0 mi WNW 17.3 mph 33.4 mph N/A Rain Light Rain Showers
5:00 PM 53.6 °F 51.8 °F 94% 29.88 in 6.0 mi WNW 12.7 mph - N/A Rain Light Rain Showers
5:32 PM 53.6 °F 50.0 °F 88% 29.87 in 8.0 mi WNW 11.5 mph 20.7 mph N/A   Mostly Cloudy
6:00 PM 53.6 °F 50.0 °F 88% 29.88 in 10.0 mi WNW 10.4 mph - N/A   Mostly Cloudy